This demonstration page uses our WeatherBlox Daily Observations layout. Learn more.

Left ArrowRight Arrow

41.12389, -100.76542

Hourly Observations for January 1, 2018

Temp ( °F °C ) Dew Point ( °F °C ) Humidity (%) Winds ( mph kmh ) Pressure ( in mb ) Visibility ( mi km ) Precip ( " mm )
12:53 am 00:53 Cloudy -1 -18.3 -7 -21.7 75 75 ESE 5 7 30.88 1046 10 16 0.00 0.00
1:53 am 01:53 Cloudy -1 -18.3 -7 -21.7 75 75 E 7 11 30.87 1045 10 16 0.00 0.00
2:53 am 02:53 Cloudy 0 -17.8 -7 -21.7 72 72 ESE 6 9 30.87 1045 10 16 0.00 0.00
3:53 am 03:53 Cloudy 0 -17.8 -6 -21.1 76 76 ESE 5 7 30.86 1045 10 16 0.00 0.00
4:53 am 04:53 Cloudy 1 -17.2 -5 -20.6 75 75 ESE 6 9 30.84 1044 10 16 0.00 0.00
5:53 am 05:53 Cloudy 1 -17.2 -4 -20 79 79 ESE 7 11 30.83 1044 10 16 0.00 0.00
6:53 am 06:53 Cloudy 2 -16.7 -3 -19.4 80 80 ESE 6 9 30.83 1044 10 16 0.00 0.00
7:53 am 07:53 Cloudy 3 -16.1 -3 -19.4 76 76 SE 6 9 30.83 1044 10 16 0.00 0.00
8:53 am 08:53 Cloudy 3 -16.1 -2 -18.9 79 79 SSE 5 7 30.83 1044 10 16 0.00 0.00
9:53 am 09:53 Cloudy 4 -15.6 -2 -18.9 76 76 SSE 9 15 30.81 1043 10 16 0.00 0.00
11:53 am 11:53 Cloudy with Light Snow 7 -13.9 0 -17.8 73 73 S 10 17 30.79 1043 4 6 0.00 0.03
12:53 pm 12:53 Cloudy with Light Snow 8 -13.3 1 -17.2 73 73 SSE 7 11 30.75 1041 3 4 0.00 0.03
1:01 pm 13:01 Cloudy with Light Snow 8 -13.3 1 -17.2 73 73 SSE 8 13 30.83 1044 2 3 0.00 0.03
1:22 pm 13:22 Cloudy with Light Snow 8 -13.3 2 -16.7 76 76 SSE 7 11 30.80 1043 3 5 0.00 0.03
1:53 pm 13:53 Cloudy 9 -12.8 2 -16.7 73 73 SE 9 15 30.70 1040 10 16 0.00 0.03
2:53 pm 14:53 Cloudy 9 -12.8 2 -16.7 73 73 ESE 12 19 30.67 1039 10 16 0.00 0.00
3:53 pm 15:53 Cloudy 9 -12.8 2 -16.7 73 73 SE 10 17 30.68 1039 10 16 0.00 0.00
5:42 pm 17:42 Partly Cloudy 8 -13.3 2 -16.7 76 76 SE 8 13 30.74 1041 10 16 0.00 0.00
5:53 pm 17:53 Clear 7 -13.9 1 -17.2 76 76 SE 7 11 30.68 1039 10 16 0.00 0.00
6:53 pm 18:53 Clear 2 -16.7 -2 -18.9 83 83 E 9 15 30.70 1040 10 16 0.00 0.00
7:53 pm 19:53 Clear -1 -18.3 -5 -20.6 82 82 ESE 7 11 30.71 1040 10 16 0.00 0.00
8:53 pm 20:53 Clear -4 -20 -7 -21.7 86 86 E 7 11 30.72 1040 10 16 0.00 0.00
9:53 pm 21:53 Clear -4 -20 -8 -22.2 83 83 ESE 9 15 30.71 1040 10 16 0.00 0.00
10:53 pm 22:53 Clear -6 -21.1 -9 -22.8 86 86 E 6 9 30.72 1040 10 16 0.00 0.00
11:53 pm 23:53 Clear -8 -22.2 -11 -23.9 86 86 E 6 9 30.72 1040 10 16 0.00 0.00

Powered by AerisWeather